Location: ???????
(54.9996°N, 37.9529°E)
Time: 04:22:51
(UTC+00:00)

Cosmos 1461 - Pass Details

Date: 14 April 2024
Orbit: 499 x 586 km, 65.0° (Epoch: 20 May)

Event Time Altitude Azimuth Distance (km) Brightness Sun altitude
Rises 00:56:05 0° 308° (NW) 2,634 6.1 -12.3°
Reaches altitude 10° 00:58:30 10° 296° (WNW) 1,732 5.1 -12.0°
Maximum altitude 01:01:44 26° 239° (WSW) 1,031 3.6 -11.7°
Drops below altitude 10° 01:04:54 10° 182° (S) 1,703 5.0 -11.3°
Sets 01:07:17 0° 169° (S) 2,580 6.0 -11.0°
